Flag for Canada Weather past 2 weeks in North Bay, Ontario, Canada

Now
7 °F

Light snow. Overcast.


Feels Like: -9 °F
Forecast: 6 / 18 °F
Wind: 12 mph from Northeast

Location: North Bay

Current Time: Mar 27, 2015 at 6:20:03 AM

Latest Report: Mar 27, 2015 at 6:00 AM


Visibility: 2 mi

Pressure: 29.97 "Hg

Humidity: 78%

Dew point: 1 °F

Location of North BayLocation

Historic Weather in North Bay — Graph

°F

North Bay temperature yesterday

Maximum temperature yesterday: 34 °F (at 5:00 AM)
Minimum temperature yesterday: 21 °F (at 10:00 PM)
Average temperature yesterday: 31 °F

Past Weeks' High & Low Weather Summary

 TemperatureHumidityPressure
High43 °F (Mar 16, 6:00 PM)100% (Mar 13, 3:00 AM)30.67 "Hg (Mar 13, 3:00 AM)
Low-11 °F (Mar 22, 7:00 AM)24% (Mar 18, 5:00 PM)29.65 "Hg (Mar 14, 4:00 PM)
Average22 °F71%30.10 "Hg
* Reported Mar 12 5:00 AM — Mar 27 5:00 AM, North Bay, Weather by CustomWeather, © 2015

Note: Actual official high and low records may vary slightly from our data, if they occured in-between our weather recording intervals... More about our weather records

Advertising

North Bay weather history for previous 24 hours

 ConditionsComfort  
Time TempWeatherWind HumidityBarometerVisibility
5:00 AM
Fri, Mar 27
7 °FLight snow. Overcast.9 mph85%29.95 "Hg4 mi
4:00 AM9 °FLight snow. Overcast.13 mph78%29.92 "Hg6 mi
3:57 AM9 °FLight snow. Overcast.13 mph78%29.92 "Hg6 mi
3:00 AM12 °FLight snow. Overcast.13 mph79%29.90 "Hg9 mi
2:00 AM14 °FLight snow. Mostly cloudy.13 mph85%29.88 "Hg3 mi
1:00 AM16 °FLight snow. Overcast.15 mph86%29.88 "Hg1 mi
12:00 AM18 °FLight snow. Overcast.12 mph93%29.86 "Hg2 mi
10:00 PM
Thu, Mar 26
21 °FLight snow. Mostly cloudy.14 mph93%29.83 "Hg4 mi
9:00 PM23 °FLight snow. Mostly cloudy.12 mph93%29.82 "Hg4 mi
8:00 PM27 °FLight snow. Mostly cloudy.16 mph86%29.80 "Hg2 mi
7:00 PM32 °FLight snow. More clouds than sun.6 mph93%29.77 "Hg3 mi
6:00 PM32 °FLight snow. More clouds than sun.5 mph87%29.74 "Hg3 mi
5:00 PM34 °FLight snow. Overcast.7 mph81%29.74 "Hg3 mi
4:00 PM34 °FLight snow. Overcast.6 mph75%29.74 "Hg7 mi
3:00 PM34 °FLight snow. Overcast.7 mph75%29.75 "Hg15 mi
2:00 PM34 °FMostly cloudy.6 mph75%29.75 "Hg15 mi
1:00 PM32 °FMostly cloudy.2 mph87%29.77 "Hg15 mi
12:00 PM32 °FMostly cloudy.6 mph87%29.78 "Hg15 mi
11:00 AM32 °FMostly cloudy.9 mph87%29.79 "Hg15 mi
10:00 AM32 °FOvercast.7 mph93%29.79 "Hg15 mi
9:00 AM30 °FLow clouds.5 mph100%29.77 "Hg15 mi
8:00 AM32 °FLight snow. Mostly cloudy.13 mph100%29.78 "Hg1 mi
7:00 AM32 °FMostly cloudy.12 mph100%29.77 "Hg15 mi
6:00 AM32 °FLow clouds.14 mph100%29.77 "Hg9 mi
Weather by CustomWeather, © 2015

See weather overviewHow to use our weather pages